EHI
0 0 0 0 0 0 0 0 0 0 0 0 0 0 0 0 0 0 0 0 0 0 0 0 0 0 0 0 0 0 0 0 0 0 0 0 0 0 0 0 0 0 0
0 0 0 0 0 0 0 0 0 0 0 0 0 0 0 0 0 0 0 0 0 0 0 0 0 0 0 0 0 0 0 0 0 0 0 0 0 0 0 0 0 0 0
0 0 0 0 0 0 0 0 0 0 0 0 0 0 0 0 0 0 0 0 0 0 0 0 0 0 0 0 0 0 0 0 0 0 0 0 0 0 0 0 0 0 0
0 0 0 0 0 0 0 0 0 0 0 0 0 0 0 0 0 0 0 0 0 0 0 0 0 0 0 0 0 0 0 0 0 0 0 0 0 0 0 0 0 0 0
0 0 0 0 0 0 0 0 0 0 0 1 1 1 0 0 0 0 0 0 0 0 0 0 0 0 0 0 0 0 0 0 0 0 0 0 0 0 0 0 0 0 0
0 0 0 0 0 0 0 0 0 0 0 1 2 2 1 0 0 0 0 0 0 0 0 0 0 0 0 0 0 0 0 0 0 0 0 0 0 0 0 0 0 0 0
0 0 0 0 0 0 0 0 0 0 0 0 1 1 1 0 0 0 0 0 0 0 0 0 0 0 0 0 0 0 0 0 0 0 0 0 0 0 0 0 0 0 0
0 0 0 0 0 0 0 0 0 0 0 0 0 1 1 0 0 0 0 0 0 0 0 0 0 0 0 0 0 0 0 0 0 0 0 0 0 0 0 0 0 0 0
0 0 0 0 0 0 0 0 0 0 0 0 0 1 1 0 0 0 0 0 0 0 0 0 0 0 0 0 0 0 0 0 0 0 0 0 0 0 0 0 0 0 0
0 0 0 0 0 0 0 0 0 0 0 0 0 1 1 0 0 0 0 0 0 0 0 0 0 0 0 0 0 0 0 0 0 0 0 0 0 0 0 0 0 0 0
0 0 0 0 0 0 0 0 0 0 0 0 0 0 0 0 0 0 0 0 0 0 0 0 0 0 0 0 0 0 0 0 0 0 0 0 0 0 0 0 0 0 0
0 0 0 0 0 0 0 0 0 0 0 0 0 0 0 0 0 0 0 0 0 0 0 0 0 0 0 0 0 0 0 0 0 0 0 0 0 0 0 0 0 0 0
0 0 0 0 0 0 0 0 0 0 0 0 0 0 0 0 0 0 0 0 0 0 0 0 0 0 0 0 0 0 0 0 0 0 0 0 0 0 0 0 0 0 0
0 0 0 0 0 0 0 0 0 0 0 0 0 0 0 0 0 0 0 0 0 0 0 0 0 0 0 0 0 0 0 0 0 0 0 0 0 0 0 0 0 0 0
0 0 0 0 0 0 0 0 0 0 0 0 0 0 0 0 0 0 0 0 0 0 0 0 0 0 0 0 0 0 0 0 0 0 0 0 0 0 0 0 0 0 0
0 0 0 0 0 0 0 0 0 0 0 0 0 0 0 0 0 0 0 0 0 0 0 0 0 0 0 0 0 0 0 0 0 0 0 0 0 0 0 0 0 0 0
0 0 0 0 0 0 0 0 0 0 0 0 0 0 0 0 0 0 0 0 0 0 0 0 0 0 0 0 0 0 0 0 0 0 0 0 0 0 0 0 0 0 0
0 0 0 0 0 0 0 0 0 0 0 0 0 0 0 0 0 0 0 0 0 0 0 0 0 0 0 0 0 0 0 0 0 0 0 0 0 0 0 0 0 0 0
0 0 0 0 0 0 0 0 0 0 0 0 0 0 0 0 0 0 0 0 0 0 0 0 0 0 0 0 0 0 0 0 0 0 0 0 0 0 0 0 0 0 0
0 0 0 0 0 0 0 0 0 0 0 0 0 0 0 0 0 0 0 0 0 0 0 0 0 0 0 0 0 0 0 0 0 0 0 0 0 0 0 0 0 0 0
0 0 0 0 0 0 0 0 0 0 0 0 0 0 0 0 0 0 0 0 0 0 0 0 0 0 0 0 0 0 0 0 0 0 0 0 0 0 0 0 0 0 0
0 0 0 0 0 0 0 0 0 0 0 0 0 0 0 0 0 0 0 0 0 0 0 0 0 0 0 0 0 0 0 0 0 0 0 0 0 0 0 0 0 0 0
0 0 0 0 0 0 0 0 0 0 0 0 0 0 0 0 0 0 0 0 0 0 0 0 0 0 0 0 0 0 0 0 0 0 0 0 0 0 0 0 0 0 0
0 0 0 0 0 0 0 0 0 0 0 0 0 0 0 0 0 0 0 0 0 0 0 0 0 0 0 0 0 0 0 0 0 0 0 0 0 0 0 0 0 0 0
0 0 0 0 0 0 0 0 0 0 0 0 0 0 0 0 0 0 0 0 0 0 0 0 0 0 0 0 0 0 0 0 0 0 0 0 0 0 0 0 0 0 0
0 0 0 0 0 0 0 0 0 0 0 0 0 0 0 0 0 0 0 0 0 0 0 0 0 0 0 0 0 0 0 0 0 0 0 0 0 0 0 0 0 0 0
Wind_Speed
5 3 3 3 3 2 2 3 4 4 4 4 4 5 6 6 6 7 9 10 10 10 10 8 8 8 8 8 8 6 6 5 3 2 3 4 6 7 7 7 6 8 8
4 4 3 2 2 3 3 4 4 4 5 5 5 5 4 4 5 5 7 9 10 10 10 10 9 9 8 8 8 6 5 4 5 4 2 3 3 5 7 7 7 8 7
5 5 3 3 3 3 4 4 5 5 5 5 3 2 2 2 3 5 7 9 10 10 10 11 10 9 9 9 10 9 9 6 5 5 4 4 5 3 3 6 7 7 6
4 4 3 3 3 4 4 4 4 5 5 5 4 5 5 6 7 6 6 7 9 10 11 11 11 10 9 9 10 10 8 7 6 5 5 4 3 3 3 3 4 6 7
4 4 4 4 4 4 4 4 4 4 4 5 6 6 7 7 5 4 6 7 8 10 11 11 11 11 10 10 10 10 10 9 8 6 4 5 3 3 3 5 3 3 5
4 4 4 3 4 4 4 4 4 5 4 5 6 7 8 7 6 6 6 6 6 7 10 11 11 11 10 11 11 11 11 10 9 8 6 5 5 5 5 7 6 5 4
3 4 4 4 4 5 5 4 4 5 5 5 6 7 8 8 8 7 7 6 5 6 9 10 10 10 10 10 9 10 10 11 11 10 8 8 7 4 5 5 5 5 4
4 4 5 4 5 5 5 5 5 6 5 5 5 6 6 5 5 6 6 6 6 7 7 10 11 11 11 10 9 8 9 9 11 12 11 8 8 7 6 5 4 5 4
5 6 6 5 5 6 6 5 5 5 5 5 5 5 5 5 6 6 6 6 6 5 6 7 9 10 11 10 10 9 10 9 10 11 11 10 8 7 7 6 6 6 7
6 7 6 6 6 6 6 5 5 5 5 5 5 4 5 6 6 5 6 7 7 6 6 7 8 9 10 10 10 9 9 10 10 9 11 11 8 8 7 7 7 7 8
7 7 7 7 6 6 5 5 4 5 5 5 5 5 5 5 6 6 7 7 6 7 7 8 8 9 10 10 10 11 10 11 11 10 12 13 11 9 8 7 7 8 7
6 6 7 7 7 6 5 5 4 5 5 5 5 5 5 5 6 7 7 6 6 6 7 7 7 9 9 10 10 11 11 11 12 12 12 12 9 11 9 8 9 9 8
7 7 7 7 7 7 6 5 5 5 5 5 5 5 5 5 6 6 6 6 6 6 6 6 7 8 9 9 10 11 11 11 12 11 12 12 11 12 9 9 9 8 7
7 7 7 7 7 7 6 6 6 5 5 5 5 5 6 6 6 6 6 6 5 6 6 6 7 7 8 8 9 10 10 11 11 11 11 11 12 13 12 10 10 8 7
7 7 7 6 6 7 7 6 6 5 5 5 5 6 6 6 6 5 5 5 5 6 5 6 6 6 6 7 8 9 9 10 10 10 10 10 11 13 11 9 9 8 7
8 7 6 6 6 7 7 7 6 6 5 5 6 6 6 6 5 5 5 5 5 5 5 5 6 6 5 8 9 8 8 8 8 9 9 9 10 12 13 13 12 11 9
7 7 6 6 6 6 6 6 6 6 5 6 6 6 6 6 6 6 5 5 5 5 5 5 5 6 7 9 9 9 7 7 7 8 7 6 6 9 9 10 11 11 11
7 6 6 6 6 5 6 6 6 5 6 6 6 7 6 7 6 5 5 5 5 5 5 5 5 5 6 8 8 7 6 6 6 7 7 7 6 7 8 8 8 7 7
6 6 5 5 4 5 6 6 6 5 6 6 7 7 7 7 7 6 6 5 4 5 5 4 5 5 6 7 6 5 4 4 5 5 5 6 6 7 7 7 8 7 5
5 4 4 4 4 5 5 5 6 6 7 7 7 7 7 6 6 7 6 5 4 4 4 5 4 4 5 6 5 4 2 3 4 3 4 6 5 5 6 7 7 7 6
5 4 4 4 5 5 5 5 6 6 7 7 7 7 7 6 6 5 5 5 4 4 4 5 4 4 4 5 5 5 2 3 3 3 3 3 4 4 5 5 5 6 5
4 4 4 5 5 4 4 6 6 7 7 7 7 7 7 6 5 5 5 4 4 4 4 4 5 4 4 4 5 5 4 3 2 3 2 2 3 4 4 4 4 5 4
5 4 4 6 5 4 4 6 7 6 6 7 7 7 6 5 5 4 5 4 3 3 4 4 4 4 3 3 6 6 5 5 3 1 1 1 2 2 2 3 4 4 3
4 4 5 6 6 5 5 5 6 6 6 6 7 6 6 6 5 4 3 4 4 3 4 4 4 4 4 3 3 2 2 2 1 0 1 2 2 2 2 2 2 1 2
4 4 5 6 7 6 6 5 5 5 6 6 6 6 5 5 5 4 3 4 4 4 4 4 3 4 4 5 6 4 3 1 0 1 1 2 2 2 2 2 2 2 2
4 5 5 6 6 5 6 5 5 5 5 6 6 4 4 4 4 4 5 6 6 8 8 8 7 5 6 8 7 7 4 3 2 2 2 2 2 2 2 2 2 2 2
Wind_Direction
273 279 271 269 276 278 270 265 254 238 210 203 204 211 220 221 222 221 219 216 215 211 210 214 209 204 208 212 209 211 212 215 186 192 252 257 235 232 231 228 228 230 228
299 299 291 286 277 266 260 256 251 241 219 214 213 214 220 227 228 226 222 217 217 214 213 213 213 209 210 210 208 206 206 207 184 179 192 262 269 241 230 224 226 230 226
271 289 292 284 284 274 262 257 248 244 233 222 216 220 218 233 229 228 225 220 216 215 214 214 213 211 208 212 210 205 204 208 203 194 186 200 233 269 252 231 229 226 223
269 280 293 301 291 274 274 267 259 249 239 221 209 209 217 227 230 229 231 226 218 218 216 214 213 211 211 214 213 209 207 199 206 214 218 216 189 203 267 266 238 233 231
264 274 281 281 283 281 284 278 274 264 248 226 217 217 227 234 239 236 235 231 223 219 217 216 214 213 213 215 212 209 207 205 207 204 203 220 231 223 228 261 259 246 238
284 290 301 308 310 309 303 292 284 271 256 236 225 222 232 241 244 240 236 235 228 223 221 217 216 216 215 215 213 212 210 210 210 210 205 198 199 208 215 239 248 250 247
304 311 318 320 316 316 309 304 299 287 273 251 240 234 235 235 236 240 238 239 236 228 225 218 217 217 217 216 213 213 215 212 212 214 217 218 219 204 206 226 245 252 257
314 312 304 299 300 306 307 305 301 293 287 266 255 248 244 238 239 242 242 241 240 237 233 224 220 219 216 216 212 214 216 216 217 220 218 222 225 217 214 215 223 252 256
320 315 314 307 302 305 302 298 295 294 293 282 269 262 254 247 248 249 244 245 247 247 241 232 226 221 218 215 212 217 216 217 221 222 220 223 226 221 220 219 216 226 252
328 326 321 315 306 301 299 303 300 294 293 288 276 273 263 254 254 258 255 251 251 250 248 239 230 224 220 218 216 220 218 217 222 223 222 225 226 224 219 220 222 224 237
322 320 317 313 309 310 310 307 304 302 300 296 290 284 278 272 267 261 257 256 256 250 246 241 233 229 224 220 221 224 220 221 225 225 225 227 224 224 220 218 220 225 228
316 313 312 315 318 315 309 302 300 298 293 293 292 288 283 279 274 269 266 262 262 258 250 247 238 235 229 223 222 228 225 224 226 227 227 228 223 224 220 218 221 225 225
313 315 318 322 321 320 313 306 301 296 295 297 297 296 293 287 282 278 275 271 269 266 257 250 244 239 234 230 227 226 227 227 228 228 227 228 221 225 221 218 222 224 227
300 308 313 317 319 318 315 310 308 304 304 304 300 296 295 291 289 285 283 279 276 274 265 256 250 247 240 236 234 232 230 230 231 230 229 228 224 226 219 218 220 220 223
302 305 306 308 313 316 318 318 315 314 312 309 306 302 303 301 300 297 293 292 289 283 277 270 262 258 248 243 238 235 236 234 236 235 231 229 227 229 221 218 213 211 217
294 298 301 303 306 309 312 316 317 316 314 308 303 305 307 307 304 298 295 294 289 288 280 276 265 259 261 269 261 248 239 237 237 239 236 231 226 228 220 218 212 208 211
290 293 294 292 296 303 306 308 309 313 316 313 313 313 311 309 303 300 298 294 291 292 285 275 272 268 269 275 271 258 245 238 237 237 236 236 232 224 214 215 214 214 216
285 288 291 296 302 306 309 308 312 315 316 317 318 319 316 313 309 303 295 290 289 287 283 279 277 275 280 285 278 269 248 238 238 237 233 230 231 222 210 206 207 213 218
276 276 282 291 304 312 314 317 318 319 322 322 323 321 318 315 314 310 303 299 295 291 289 290 288 281 282 284 285 280 253 243 244 244 239 234 231 220 202 198 201 207 216
287 289 300 306 308 310 318 319 317 321 321 318 316 314 311 310 310 308 306 307 302 296 301 301 296 287 286 293 290 281 251 254 253 248 243 243 232 214 193 198 199 205 207
293 301 308 308 307 314 323 316 316 314 314 316 315 313 313 311 308 309 310 311 310 312 310 306 307 301 301 304 299 287 256 243 250 251 247 238 211 196 191 200 204 204 186
299 305 307 304 306 313 317 309 308 311 317 318 317 316 315 316 317 312 312 315 318 321 317 316 317 316 315 323 310 298 282 269 243 250 239 207 182 181 187 195 182 171 166
297 304 302 303 306 310 308 301 307 317 319 319 318 317 316 317 314 311 313 317 319 319 318 315 313 318 325 326 327 314 301 288 267 235 190 166 154 159 173 171 158 155 155
298 304 307 304 306 313 311 301 309 317 317 317 317 318 318 321 323 320 318 318 318 319 319 320 316 316 320 320 324 321 321 317 297 158 125 117 109 117 121 129 137 143 148
299 301 300 299 302 311 312 314 320 323 321 318 316 319 323 322 324 328 325 318 313 315 317 310 303 305 307 317 327 328 321 301 226 72 94 93 92 95 94 92 96 104 118
296 300 299 299 303 309 311 316 321 321 318 317 317 317 320 319 323 327 331 336 331 336 336 332 324 317 321 328 337 338 340 356 50 71 93 102 109 119 119 119 110 108 117